Big Piney, WY

6:12 AM MDT on April 25, 2017 (GMT -0600)
Big Piney-Marbleton

Weather History for KBPI - January, 2012

Change the Weather History Date:

Friday, January 27, 2012

  Actual Average Record
Temperature  
Mean Temperature 8 °F 11 °F  
Max Temperature 21 °F 26 °F 44 °F (1988)
Min Temperature -6 °F -2 °F -29 °F (2009)
Degree Days  
Heating Degree Days 58 54  
Month to date heating degree days 1458  
Since 1 July heating degree days 5897  
Cooling Degree Days 0 0  
Month to date cooling degree days 0  
Year to date cooling degree days 0  
Moisture  
Dew Point 2 °F    
Average Humidity 65    
Maximum Humidity 84    
Minimum Humidity 46    
Precipitation  
Precipitation 0.00 in 0.01 in 0.11 in (1996)
Month to date precipitation 0.28  
Year to date precipitation 0.28  
Sea Level Pressure  
Sea Level Pressure 30.35 in    
Wind  
Wind Speed 13 mph (NNW)    
Max Wind Speed 21 mph    
Max Gust Speed -    
Visibility 10 miles    
Events      
T = Trace of Precipitation, MM = Missing Value Source: NWS Daily Summary

Daily Weather History Graph

Daily Weather History Graph

Search for Another Location

Airport or City:

Trip Planner

Search our weather history database for the weather conditions in past years. The results will help you decide how hot, cold, wet, or windy it might be!

Date:

Astronomy

Jan. 27, 2012 Rise Set
Actual Time 7:39 AM MST 5:26 PM MST
Civil Twilight 7:09 AM MST 5:57 PM MST
Nautical Twilight 6:35 AM MST 6:31 PM MST
Astronomical Twilight 6:02 AM MST 7:04 PM MST
Moon 9:28 AM MST (1/27) 10:29 PM MST (1/27)
Length of Visible Light 10h 47m
Length of Day
9h 47m
Waxing Crescent, 20% of the Moon is Illuminated
Jan 27
Waxing Crescent
Jan 30
First Quarter
Feb 7
Full
Feb 14
Last Quarter
Feb 21
New

Hourly Weather History & Observations

Time (MST) Temp. Windchill Dew Point Humidity Pressure Visibility Wind Dir Wind Speed Gust Speed Precip Events Conditions
12:53 AM 19.9 °F 6.2 °F 12.0 °F 71% 30.03 in 10.0 mi NW 15.0 mph - N/A   Clear
1:53 AM 21.0 °F 5.4 °F 12.9 °F 71% 30.04 in 10.0 mi NNW 20.7 mph - N/A   Clear
2:53 AM 19.0 °F 4.5 °F 12.0 °F 74% 30.08 in 10.0 mi NNW 16.1 mph - N/A   Clear
3:53 AM 14.0 °F -0.2 °F 10.0 °F 84% 30.12 in 10.0 mi NW 12.7 mph - N/A   Clear
4:53 AM 12.9 °F 5.2 °F 8.1 °F 81% 30.18 in 10.0 mi NW 4.6 mph - N/A   Clear
5:53 AM 16.0 °F -0.4 °F 7.0 °F 68% 30.23 in 10.0 mi NNW 18.4 mph - N/A   Clear
6:53 AM 12.9 °F -3.9 °F 3.0 °F 65% 30.27 in 10.0 mi NNW 17.3 mph - N/A   Clear
7:53 AM 12.0 °F -4.0 °F 1.0 °F 61% 30.31 in 10.0 mi NNW 15.0 mph - N/A   Clear
8:53 AM 12.9 °F -0.9 °F 3.0 °F 65% 30.32 in 10.0 mi NE 11.5 mph - N/A   Clear
9:53 AM 16.0 °F 2.9 °F 5.0 °F 62% 30.35 in 10.0 mi North 11.5 mph - N/A   Clear
10:53 AM 19.0 °F 13.9 °F 5.0 °F 54% 30.36 in 10.0 mi NW 3.5 mph - N/A   Clear
11:53 AM 21.0 °F 8.1 °F 3.9 °F 48% 30.37 in 10.0 mi NNW 13.8 mph - N/A   Clear
12:53 PM 21.0 °F 6.6 °F 5.0 °F 50% 30.33 in 10.0 mi NNW 17.3 mph - N/A   Clear
1:53 PM 21.0 °F 6.2 °F 3.9 °F 48% 30.34 in 10.0 mi NNW 18.4 mph - N/A   Clear
2:53 PM 21.0 °F 8.1 °F 3.0 °F 46% 30.38 in 10.0 mi NW 13.8 mph - N/A   Clear
3:53 PM 19.0 °F 5.6 °F 3.0 °F 50% 30.40 in 10.0 mi NNW 13.8 mph - N/A   Clear
4:53 PM 15.8 °F 5.1 °F -0.4 °F 49% 30.28 in 10.0 mi North 8.1 mph - N/A   Clear
5:53 PM 6.1 °F -10.2 °F -4.0 °F 63% 30.50 in 10.0 mi NNW 12.7 mph - N/A   Clear
6:53 PM 1.0 °F -16.6 °F -7.1 °F 69% 30.56 in 10.0 mi NNW 12.7 mph - N/A   Clear
7:53 PM -2.9 °F -20.8 °F -9.9 °F 72% 30.60 in 10.0 mi North 11.5 mph - N/A   Clear
8:53 PM -2.0 °F -17.7 °F -9.0 °F 72% 30.59 in 10.0 mi NNW 9.2 mph - N/A   Clear
9:53 PM -5.1 °F -20.4 °F -9.9 °F 80% 30.60 in 10.0 mi East 8.1 mph - N/A   Clear
10:53 PM -6.0 °F - -11.0 °F 79% 30.57 in 10.0 mi Calm Calm - N/A   Clear
11:53 PM -0.0 °F -7.9 °F -8.0 °F 69% 30.54 in 10.0 mi Variable 3.5 mph - N/A   Clear